Beckley, WV

5:33 AM EDT on March 29, 2017 (GMT -0400)
Raleigh County Memorial

Weather History for KBKW - June, 2012

Change the Weather History Date:

Sunday, June 24, 2012

  Actual Average Record
Temperature  
Mean Temperature 70 °F 69 °F  
Max Temperature 82 °F 79 °F 90 °F (1949)
Min Temperature 58 °F 60 °F 40 °F (1918)
Degree Days  
Heating Degree Days 0 0  
Month to date heating degree days 43 38  
Since 1 June heating degree days 43 38  
Since 1 July heating degree days 4206 5339  
Cooling Degree Days 5 5  
Month to date cooling degree days 83 80  
Year to date cooling degree days 197 121  
Since 1 June cooling degree days 83 80  
Growing Degree Days 20 (Base 50)    
Moisture  
Dew Point 57 °F    
Average Humidity 62    
Maximum Humidity 78    
Minimum Humidity 45    
Precipitation  
Precipitation 0.00 in 0.14 in 1.78 in (1912)
Month to date precipitation 2.13 3.18  
Year to date precipitation 20.96 20.34  
Snow  
Snow 0.00 in - - ()
Month to date snowfall 0.0  
Since 1 September snowfall 36.0  
Snow Depth 0.00 in    
Sea Level Pressure  
Sea Level Pressure 29.98 in    
Wind  
Wind Speed 3 mph (SE)    
Max Wind Speed 9 mph    
Max Gust Speed 13 mph    
Visibility 10 miles    
Events      
T = Trace of Precipitation, MM = Missing Value Source: NWS Daily Summary

Daily Weather History Graph

Daily Weather History Graph

Search for Another Location

Airport or City:

Trip Planner

Search our weather history database for the weather conditions in past years. The results will help you decide how hot, cold, wet, or windy it might be!

Date:

Astronomy

Jun. 24, 2012 Rise Set
Actual Time 6:03 AM EDT 8:50 PM EDT
Civil Twilight 5:32 AM EDT 9:21 PM EDT
Nautical Twilight 4:53 AM EDT 10:00 PM EDT
Astronomical Twilight 4:08 AM EDT 10:45 PM EDT
Moon 11:02 AM EDT (6/24) 11:54 PM EDT (6/24)
Length of Visible Light 15h 49m
Length of Day
14h 46m
Waxing Crescent, 24% of the Moon is Illuminated
Jun 24
Waxing Crescent
Jun 26
First Quarter
Jul 3
Full
Jul 10
Last Quarter
Jul 19
New

Hourly Weather History & Observations

Time (EDT) Temp. Heat Index Dew Point Humidity Pressure Visibility Wind Dir Wind Speed Gust Speed Precip Events Conditions
12:51 AM 64.0 °F - 55.0 °F 73% 30.04 in 10.0 mi Calm Calm - N/A   Clear
1:51 AM 64.0 °F - 55.0 °F 73% 30.04 in 10.0 mi Calm Calm - N/A   Clear
2:51 AM 62.1 °F - 55.9 °F 80% 30.03 in 10.0 mi Calm Calm - N/A   Clear
3:51 AM 64.0 °F - 54.0 °F 70% 30.01 in 10.0 mi Calm Calm - N/A   Partly Cloudy
4:51 AM 64.9 °F - 54.0 °F 68% 30.01 in 10.0 mi Calm Calm - N/A   Clear
5:51 AM 60.1 °F - 54.0 °F 80% 30.01 in 10.0 mi Calm Calm - N/A   Clear
6:51 AM 62.1 °F - 54.0 °F 75% 30.02 in 10.0 mi Calm Calm - N/A   Clear
7:51 AM 66.9 °F - 57.0 °F 70% 30.01 in 10.0 mi Calm Calm - N/A   Clear
8:51 AM 72.0 °F - 55.0 °F 55% 30.01 in 10.0 mi SE 4.6 mph - N/A   Clear
9:51 AM 73.9 °F - 57.9 °F 57% 30.02 in 10.0 mi SSE 6.9 mph - N/A   Clear
10:51 AM 77.0 °F - 60.1 °F 56% 30.01 in 10.0 mi Variable 4.6 mph - N/A   Clear
11:51 AM 77.0 °F - 57.0 °F 50% 30.00 in 10.0 mi South 3.5 mph - N/A   Mostly Cloudy
12:51 PM 79.0 °F - 57.9 °F 48% 29.98 in 10.0 mi Variable 5.8 mph - N/A   Clear
1:51 PM 78.1 °F - 59.0 °F 52% 29.98 in 10.0 mi East 3.5 mph - N/A   Mostly Cloudy
2:51 PM 79.0 °F - 60.1 °F 52% 29.95 in 10.0 mi ENE 8.1 mph - N/A   Mostly Cloudy
3:51 PM 80.1 °F 80.7 °F 59.0 °F 48% 29.94 in 10.0 mi SE 4.6 mph - N/A   Scattered Clouds
4:51 PM 80.1 °F 81.1 °F 61.0 °F 52% 29.92 in 10.0 mi SSE 6.9 mph - N/A   Mostly Cloudy
5:51 PM 79.0 °F - 57.9 °F 48% 29.92 in 10.0 mi Calm Calm - N/A   Scattered Clouds
6:51 PM 80.1 °F 80.6 °F 57.9 °F 47% 29.93 in 10.0 mi NW 9.2 mph - N/A   Overcast
7:51 PM 79.0 °F - 59.0 °F 50% 29.92 in 10.0 mi North 3.5 mph - N/A   Scattered Clouds
8:51 PM 71.1 °F - 61.0 °F 70% 29.92 in 10.0 mi South 8.1 mph - N/A   Clear
9:51 PM 69.1 °F - 59.0 °F 70% 29.93 in 10.0 mi Calm Calm - N/A   Clear
10:51 PM 66.9 °F - 59.0 °F 76% 29.92 in 10.0 mi Calm Calm - N/A   Clear
11:51 PM 66.0 °F - 57.9 °F 75% 29.93 in 10.0 mi Calm Calm - N/A   Partly Cloudy